Location: ??
(31.9467°N, 34.8903°E)
Time: 12:17:08
(UTC+00:00)

Cosmos 2227 Rocket - Pass Details

Date: 29 October 2020
Orbit: 839 x 845 km, 71.0° (Epoch: 26 November)

Event Time Altitude Azimuth Distance (km) Brightness Sun altitude
Rises 15:13:33 0° 353° (N) 3,401 5.3 -5.0°
Reaches altitude 10° 15:16:25 10° 6° (N) 2,464 4.4 -5.6°
Maximum altitude 15:21:05 26° 62° (ENE) 1,598 3.1 -6.6°
Drops below altitude 10° 15:25:45 10° 118° (ESE) 2,458 4.2 -7.6°
Sets 15:28:35 0° 131° (SE) 3,390 5.0 -8.1°
